Weather History for KOGA - August, 2014

Change the Weather History Date:

Friday, August 15, 2014

  Actual Average Record
Temperature  
Mean Temperature 75 °F -  
Max Temperature 90 °F 86 °F 102 °F (1970)
Min Temperature 60 °F 57 °F 46 °F (1978)
Cooling Degree Days 10    
Growing Degree Days 25 (Base 50)    
Moisture  
Dew Point 59 °F    
Average Humidity 63    
Maximum Humidity 97    
Minimum Humidity 25    
Precipitation  
Precipitation 0.01 in - - ()
Sea Level Pressure  
Sea Level Pressure 29.94 in    
Wind  
Wind Speed 7 mph (NW)    
Max Wind Speed 20 mph    
Max Gust Speed 25 mph    
Visibility 10 miles    
Events Rain    
Averages and records for this station are not official NWS values.
T = Trace of Precipitation, MM = Missing Value Source: NWS Daily Summary

Daily Weather History Graph

Daily Weather History Graph

Search for Another Location

Airport or City:

Trip Planner

Search our weather history database for the weather conditions in past years. The results will help you decide how hot, cold, wet, or windy it might be!

Date:

Astronomy

Aug. 15, 2014 Rise Set
Actual Time 5:56 AM MDT 7:45 PM MDT
Civil Twilight 5:27 AM MDT 8:15 PM MDT
Nautical Twilight 4:51 AM MDT 8:51 PM MDT
Astronomical Twilight 4:12 AM MDT 9:29 PM MDT
Moon 10:45 PM MDT (8/15) 11:45 AM MDT (8/15)
Length of Visible Light 14h 48m
Length of Day
13h 48m
Waning Gibbous, 68% of the Moon is Illuminated
Aug 15
Waning Gibbous
Aug 17
Last Quarter
Aug 25
New
Sep 2
First Quarter
Sep 8
Full

Hourly Weather History & Observations

Time (MDT) Temp. Heat Index Dew Point Humidity Pressure Visibility Wind Dir Wind Speed Gust Speed Precip Events Conditions
12:15 AM 66.4 °F - 64.4 °F 93% 29.94 in 10.0 mi WSW 3.5 mph - N/A   Clear
12:35 AM 65.7 °F - 63.9 °F 94% 29.93 in 10.0 mi West 4.6 mph - N/A   Clear
12:55 AM 65.5 °F - 63.9 °F 94% 29.94 in 10.0 mi West 4.6 mph - N/A   Clear
1:15 AM 65.5 °F - 63.7 °F 94% 29.94 in 10.0 mi West 4.6 mph - N/A   Clear
1:35 AM 65.5 °F - 63.9 °F 94% 29.93 in 10.0 mi West 3.5 mph - N/A   Scattered Clouds
1:55 AM 65.5 °F - 63.5 °F 93% 29.92 in 10.0 mi West 4.6 mph - N/A Rain Light Rain
2:15 AM 65.3 °F - 63.7 °F 94% 29.91 in 10.0 mi WNW 4.6 mph - N/A Rain Light Rain
2:35 AM 65.5 °F - 64.0 °F 95% 29.91 in 10.0 mi WNW 3.5 mph - N/A   Scattered Clouds
2:55 AM 66.4 °F - 63.5 °F 90% 29.91 in 10.0 mi Calm Calm - N/A   Scattered Clouds
3:15 AM 65.7 °F - 63.5 °F 93% 29.92 in 10.0 mi SW 3.5 mph - N/A   Clear
3:35 AM 65.5 °F - 63.1 °F 92% 29.92 in 10.0 mi SSW 3.5 mph - N/A   Clear
3:55 AM 65.3 °F - 63.0 °F 92% 29.93 in 10.0 mi Calm Calm - N/A   Clear
4:35 AM 64.8 °F - 62.6 °F 93% 29.93 in 10.0 mi WSW 3.5 mph - N/A   Clear
4:55 AM 63.7 °F - 61.7 °F 93% 29.93 in 10.0 mi WSW 5.8 mph - N/A   Clear
5:15 AM 62.8 °F - 61.0 °F 94% 29.94 in 10.0 mi West 4.6 mph - N/A   Clear
5:35 AM 62.8 °F - 61.2 °F 94% 29.94 in 10.0 mi West 4.6 mph - N/A   Clear
5:55 AM 61.9 °F - 60.8 °F 96% 29.94 in 10.0 mi West 5.8 mph - N/A   Clear
6:15 AM 60.8 °F - 59.9 °F 97% 29.95 in 10.0 mi West 5.8 mph - N/A   Clear
6:35 AM 61.2 °F - 60.4 °F 97% 29.95 in 10.0 mi West 5.8 mph - N/A   Mostly Cloudy
6:55 AM 61.7 °F - 60.8 °F 97% 29.96 in 10.0 mi West 6.9 mph - N/A   Mostly Cloudy
7:15 AM 63.7 °F - 61.9 °F 94% 29.96 in 10.0 mi West 9.2 mph - 0.01 in   Clear
7:35 AM 64.9 °F - 62.6 °F 92% 29.96 in 10.0 mi West 6.9 mph - 0.01 in   Clear
7:55 AM 66.7 °F - 63.3 °F 89% 29.96 in 10.0 mi West 9.2 mph - 0.01 in   Clear
8:15 AM 69.1 °F - 63.9 °F 83% 29.97 in 10.0 mi West 8.1 mph - N/A   Clear
8:35 AM 72.9 °F - 62.6 °F 70% 29.97 in 10.0 mi NW 10.4 mph - N/A   Clear
8:55 AM 74.5 °F - 62.1 °F 65% 29.96 in 10.0 mi NW 12.7 mph 16.1 mph N/A   Clear
9:15 AM 76.8 °F - 62.2 °F 61% 29.97 in 10.0 mi NW 10.4 mph - N/A   Clear
9:35 AM 77.9 °F - 62.2 °F 58% 29.97 in 10.0 mi NW 10.4 mph - N/A   Clear
9:55 AM 80.1 °F 81.2 °F 61.9 °F 54% 29.97 in 10.0 mi NW 10.4 mph - N/A   Clear
10:15 AM 81.0 °F 81.8 °F 61.2 °F 51% 29.97 in 10.0 mi NNW 12.7 mph 17.3 mph N/A   Clear
10:35 AM 82.2 °F 82.9 °F 61.5 °F 49% 29.97 in 10.0 mi NW 15.0 mph 19.6 mph N/A   Clear
10:55 AM 82.6 °F 83.1 °F 61.2 °F 48% 29.97 in 10.0 mi NNW 12.7 mph 19.6 mph N/A   Clear
11:15 AM 84.2 °F 84.0 °F 59.7 °F 43% 29.97 in 10.0 mi NNW 15.0 mph - N/A   Clear
11:35 AM 84.7 °F 84.2 °F 58.6 °F 41% 29.96 in 10.0 mi NNW 13.8 mph 17.3 mph N/A   Clear
11:55 AM 85.5 °F 84.8 °F 58.6 °F 40% 29.96 in 10.0 mi NNW 12.7 mph 19.6 mph N/A   Clear
12:15 PM 86.0 °F 85.2 °F 58.1 °F 39% 29.95 in 10.0 mi NNW 12.7 mph 19.6 mph N/A   Clear
12:35 PM 86.4 °F 85.2 °F 57.2 °F 37% 29.95 in 10.0 mi NNW 12.7 mph 21.9 mph N/A   Clear
12:55 PM 87.4 °F 86.1 °F 57.0 °F 35% 29.95 in 10.0 mi NNW 12.7 mph 18.4 mph N/A   Clear
1:15 PM 88.0 °F 86.5 °F 56.7 °F 34% 29.95 in 10.0 mi NNW 17.3 mph 21.9 mph N/A   Clear
1:35 PM 88.0 °F 86.3 °F 55.8 °F 33% 29.95 in 10.0 mi NNW 18.4 mph 25.3 mph N/A   Clear
1:55 PM 88.5 °F 86.7 °F 55.4 °F 32% 29.95 in 10.0 mi NW 13.8 mph 21.9 mph N/A   Clear
2:15 PM 88.9 °F 86.9 °F 54.9 °F 31% 29.94 in 10.0 mi NNW 10.4 mph 20.7 mph N/A   Clear
2:35 PM 89.2 °F 87.1 °F 54.1 °F 30% 29.93 in 10.0 mi NNW 19.6 mph 23.0 mph N/A   Clear
2:55 PM 89.6 °F 87.5 °F 54.1 °F 30% 29.93 in 10.0 mi North 12.7 mph 21.9 mph N/A   Clear
3:15 PM 90.1 °F 88.1 °F 54.3 °F 30% 29.93 in 10.0 mi NNW 16.1 mph 20.7 mph N/A   Clear
3:35 PM 90.1 °F 87.9 °F 53.4 °F 29% 29.92 in 10.0 mi NNW 15.0 mph 18.4 mph N/A   Clear
3:55 PM 89.6 °F 87.3 °F 53.4 °F 29% 29.92 in 10.0 mi NW 9.2 mph 17.3 mph N/A   Clear
4:15 PM 89.8 °F - 52.7 °F 28% 29.92 in 10.0 mi NNW 16.1 mph 20.7 mph N/A   Scattered Clouds
4:35 PM 89.8 °F - 52.3 °F 28% 29.92 in 10.0 mi NW 12.7 mph 18.4 mph N/A   Scattered Clouds
4:55 PM 89.8 °F - 51.6 °F 27% 29.91 in 10.0 mi NNW 12.7 mph 23.0 mph N/A   Clear
5:15 PM 89.8 °F - 52.2 °F 28% 29.91 in 10.0 mi North 13.8 mph 21.9 mph N/A   Clear
5:35 PM 89.8 °F - 49.5 °F 25% 29.91 in 10.0 mi NNW 18.4 mph 25.3 mph N/A   Clear
5:55 PM 88.3 °F 86.1 °F 53.4 °F 30% 29.91 in 10.0 mi NW 9.2 mph - N/A   Clear
6:15 PM 87.8 °F - 52.7 °F 30% 29.91 in 10.0 mi North 11.5 mph 17.3 mph N/A   Clear
6:35 PM 86.2 °F 84.4 °F 54.0 °F 33% 29.91 in 10.0 mi NE 8.1 mph - N/A   Clear
6:55 PM 85.1 °F 83.5 °F 53.6 °F 34% 29.92 in 10.0 mi North 10.4 mph - N/A   Clear
7:15 PM 84.0 °F - 52.9 °F 34% 29.92 in 10.0 mi North 9.2 mph - N/A   Clear
7:35 PM 80.1 °F 80.2 °F 55.8 °F 43% 29.92 in 10.0 mi NNE 6.9 mph - N/A   Clear
8:15 PM 73.8 °F - 58.1 °F 58% 29.93 in 10.0 mi NE 5.8 mph - N/A   Scattered Clouds
8:35 PM 73.4 °F - 57.7 °F 58% 29.94 in 10.0 mi NE 5.8 mph - N/A   Scattered Clouds
8:55 PM 73.4 °F - 57.4 °F 57% 29.95 in 10.0 mi NE 6.9 mph - N/A   Clear
9:15 PM 71.6 °F - 58.3 °F 63% 29.95 in 10.0 mi Calm Calm - N/A   Clear
9:35 PM 69.6 °F - 59.9 °F 71% 29.96 in 7.0 mi Calm Calm - N/A   Clear
10:15 PM 68.5 °F - 59.4 °F 72% 29.96 in 10.0 mi Calm Calm - N/A   Clear
10:35 PM 66.6 °F - 59.4 °F 78% 29.96 in 10.0 mi Calm Calm - N/A   Clear
10:55 PM 67.3 °F - 58.8 °F 74% 29.96 in 10.0 mi Calm Calm - N/A   Clear
11:15 PM 65.7 °F - 58.8 °F 79% 29.96 in 10.0 mi Calm Calm - N/A   Clear
11:35 PM 63.9 °F - 58.6 °F 83% 29.96 in 10.0 mi Calm Calm - N/A   Clear
11:55 PM 61.0 °F - 58.1 °F 90% 29.97 in 10.0 mi Calm Calm - N/A   Clear